CDT,Max TemperatureF,Mean TemperatureF,Min TemperatureF,Max Dew PointF,MeanDew PointF,Min DewpointF,Max Humidity, Mean Humidity, Min Humidity, Max Sea Level PressureIn, Mean Sea Level PressureIn, Min Sea Level PressureIn, Max VisibilityMiles, Mean VisibilityMiles, Min VisibilityMiles, Max Wind SpeedMPH, Mean Wind SpeedMPH, Max Gust SpeedMPH,PrecipitationIn, CloudCover, Events, WindDirDegrees
2012-10-1,74,61,48,45,43,42,80,57,33,29.90,29.86,29.81,10,10,8,12,4,14,0.00,0,,65
2012-10-2,76,60,44,50,45,42,92,63,33,29.92,29.87,29.83,10,10,8,12,5,15,0.00,0,,9
2012-10-3,80,62,43,46,43,40,86,57,28,29.97,29.92,29.87,10,10,9,16,6,21,0.00,0,Rain,164
2012-10-4,60,51,41,50,42,34,77,69,60,30.26,30.11,29.95,10,9,2,25,8,31,0.15,3,Rain,271
2012-10-5,47,40,32,34,29,23,82,64,45,30.28,30.25,30.19,10,10,9,21,9,29,0.00,3,Snow,300
2012-10-6,48,37,26,27,24,20,75,60,45,30.31,30.27,30.22,10,10,9,21,10,25,0.00,4,Snow,310
2012-10-7,53,39,25,27,23,18,84,54,24,30.29,30.21,30.11,10,10,9,14,7,23,0.00,0,Snow,257
2012-10-8,64,49,33,34,30,25,75,52,28,30.10,30.00,29.90,10,10,9,26,15,35,0.00,0,Snow,195
2012-10-9,61,49,37,42,37,32,92,67,42,30.08,29.92,29.86,10,10,5,24,12,31,0.05,3,Rain,252
2012-10-10,57,44,30,32,26,21,85,55,24,30.24,30.17,30.09,10,10,10,18,8,24,0.00,0,,257
2012-10-11,73,56,39,43,33,27,65,47,28,30.31,30.12,30.04,10,10,10,24,12,31,0.00,1,,247
2012-10-12,60,48,36,45,30,19,59,40,21,30.44,30.28,30.12,10,10,8,20,11,24,0.08,3,Rain-Thunderstorm,103
2012-10-13,69,61,52,64,56,45,100,86,71,30.11,29.87,29.69,10,6,2,30,12,37,1.47,8,Rain-Thunderstorm,171
2012-10-14,66,55,44,63,55,41,93,82,71,29.93,29.62,29.50,10,7,2,29,13,36,1.57,7,Rain-Thunderstorm,241
2012-10-15,66,53,39,42,40,36,89,63,37,30.01,29.95,29.88,10,10,9,10,6,13,0.00,0,Rain,237
2012-10-16,78,65,51,52,47,42,77,57,37,29.86,29.59,29.44,10,10,10,22,13,31,0.00,0,,189
2012-10-17,66,57,48,54,48,33,89,72,54,29.48,29.43,29.39,10,10,8,25,11,36,0.12,4,Rain,249
2012-10-18,49,47,44,45,38,28,92,69,46,29.47,29.42,29.40,10,9,5,28,15,36,0.26,7,Rain,255
2012-10-19,54,48,42,45,43,40,100,86,71,29.77,29.60,29.41,10,9,4,21,12,29,T,8,Rain,287
2012-10-20,58,50,42,43,42,39,96,77,57,29.88,29.83,29.76,10,10,9,13,5,15,0.00,5,,251
2012-10-21,76,59,42,60,50,39,96,77,57,29.88,29.85,29.81,10,10,7,17,8,21,0.00,1,,131
2012-10-22,72,67,62,67,63,58,100,89,78,29.87,29.82,29.79,10,7,2,20,8,23,0.67,6,Rain-Thunderstorm,131
2012-10-23,74,70,65,64,63,59,93,81,68,29.84,29.79,29.73,10,10,9,22,13,29,0.01,6,Rain,177
2012-10-24,81,73,65,65,64,62,87,73,58,29.82,29.77,29.69,10,10,9,25,15,31,0.00,2,,185
2012-10-25,72,55,38,62,45,27,93,79,64,30.25,29.84,29.60,10,9,2,31,20,37,0.11,7,Rain,290
2012-10-26,46,38,29,28,27,25,82,64,45,30.43,30.39,30.27,10,10,10,26,11,33,0.00,2,,330
2012-10-27,46,35,23,27,23,20,85,65,45,30.44,30.37,30.31,10,10,10,10,5,14,0.00,1,,357
2012-10-28,49,38,27,25,22,18,81,56,31,30.38,30.33,30.30,10,10,10,10,5,13,0.00,0,,37
2012-10-29,49,38,26,33,27,22,82,62,42,30.37,30.30,30.20,10,10,9,10,4,12,0.00,2,Rain,92
2012-10-30,55,42,29,29,26,22,75,55,35,30.19,30.08,29.97,10,10,10,21,11,56,0.00,0,,350
2012-10-31,51,40,28,28,24,18,78,53,27,30.05,30.01,29.99,10,10,10,17,10,23,0.00,0,,307